Tracking 19170 objects as of 22-May-2018
HD Live streaming from Space Station
objects crossing your sky now

COSMOS 618

Track COSMOS 618 now!
10-day predictions
COSMOS 618 is classified as:


NORAD ID: 6986
Int'l Code: 1973-104B
Perigee: 1,450.5 km
Apogee: 1,493.8 km
Inclination: 74.0 °
Period: 115.2 minutes
Semi major axis: 7843 km
RCS: 0.6754 m2 (medium)
Launch date: December 19, 1973
Source: Commonwealth of Independent States (former USSR) (CIS)
Launch site: PLESETSK MISSILE AND SPACE COMPLEX (PKMTR)
aabbcc
Your satellite tracking list
Your tracking list is empty




NASA's NSSDC Master Catalog

Two Line Element Set (TLE):
1  6986U 73104B   18141.87221646 +.00000001 +00000-0 +11322-3 0  9998
2  6986 074.0286 290.2940 0027584 228.7520 242.2506 12.49883293026846
Source of the keplerian elements: AFSPC